Regional Weather Roundup
Issued by NWS Northern Indiana

Home | Current Version | Previous Version | Graphics & Text | Print | Product List | Glossary On
Versions: 1 2 3 4 5 6 7 8 9 10 11 12 13 14 15 16 17 18 19 20 21 22 23 24 25 26 27 28 29 30 31 32 33 34 35 36 37 38 39 40 41 42 43 44 45 46 47 48 49 50
000
ASUS43 KIWX 301410
RWRIWX

KIWX WEATHER ROUNDUP
NATIONAL WEATHER SERVICE NORTHERN INDIANA
1000 AM EDT WED JUL 30 2014

NOTE: "FAIR" INDICATES FEW OR NO CLOUDS BELOW 12,000 FEET WITH NO
SIGNIFICANT WEATHER AND/OR OBSTRUCTIONS TO VISIBILITY.

* THESE STATIONS ARE NOT UNDER NWS QUALITY CONTROL. THEY ALSO MAY NOT
  REPORT WEATHER SUCH AS PRECIPITATION OR FOG.

INZ001>027-301500-
NORTHERN INDIANA

CITY           SKY/WX    TMP DP  RH WIND       PRES   REMARKS
GARY*          PTSUNNY   70  57  64 W6        30.05R
VALPARAISO     MOSUNNY   68  58  70 NW7       30.05R
MICHIGAN CITY* MOSUNNY   63  61  94 NW3       30.05S
LAPORTE*       MOSUNNY   65  59  80 NW7       30.04S
KNOX*          PTSUNNY   64  57  79 CALM      30.04R
SOUTH BEND     CLOUDY    65  60  84 W5        30.05R
ELKHART*       PTSUNNY   64  61  88 W3        30.04S
GOSHEN         PTSUNNY   66  58  75 W6        30.03S
MONTICELLO*    PTSUNNY   65  62  90 W3        30.05S
LOGANSPORT*    PTSUNNY   63  59  88 W3        30.06S
ROCHESTER*     PTSUNNY   64  59  82 W3        30.06R
WARSAW*        MOSUNNY   64  57  77 CALM      30.04S
ANGOLA*        SUNNY     64  55  72 NW5       30.03S
FORT WAYNE     MOSUNNY   66  58  75 W8        30.05R
HUNTINGTON*    PTSUNNY   65  60  85 W3        30.04S
PERU/GRISSOM   MOSUNNY   63  63 100 W7        30.06R
MARION*        CLOUDY    63  60  91 W6        30.06S

$$
INZ028>050-301500-
CENTRAL INDIANA

CITY           SKY/WX    TMP DP  RH WIND       PRES   REMARKS
LAFAYETTE      PTSUNNY   64  61  90 SW5       30.06S
KOKOMO*        MOSUNNY   64  61  88 NW8       30.06S
MUNCIE*        MOSUNNY   67  59  75 W6        30.05S
INDIANAPOLIS   MOSUNNY   66  60  81 W6        30.07R

$$
MIZ043>046-050>051-056>058-064>065-071>073-077>080-301500-
SOUTHWEST LOWER MICHIGAN

CITY           SKY/WX    TMP DP  RH WIND       PRES   REMARKS
BATTLE CREEK   MOSUNNY   64  57  78 W6        30.03S
BENTON HARBOR  MOSUNNY   65  58  78 VRB5      30.03R
COLDWATER*     MOSUNNY   65  59  82 W6        30.02S
HILLSDALE*     PTSUNNY   66  59  80 NW6       30.02S
HOLLAND        CLOUDY    64  59  83 W6        30.02S
GRAND RAPIDS   PTSUNNY   64  58  80 CALM      30.02S
KALAMAZOO      MOSUNNY   65  57  75 W6        30.02S
STURGIS*       MOSUNNY   64  57  77 NW5       30.03S
THREE RIVERS*  PTSUNNY   68  60  77 W8        30.03S

$$
OHZ001>008-015>018-024>025-301500-
NORTHWEST OHIO

CITY           SKY/WX    TMP DP  RH WIND       PRES   REMARKS
WAUSEON*       FAIR      66  59  77 VRB5      30.02S
DEFIANCE       MOSUNNY   67  59  75 VRB3      30.03S
FINDLAY        PTSUNNY   65  61  87 SW5       30.02S
TOLEDO EXPRESS MOSUNNY   67  57  70 SW6       30.02S
TOLEDO METCALF MOSUNNY   66  57  72 W5        30.03S
LIMA           MOSUNNY   66  61  84 SW9       30.03F

$$
&&


USA.gov is the U.S. government's official web portal to all federal, state and local government web resources and services.